Weather History for KCOT - January, 2013

Change the Weather History Date:

Wednesday, January 23, 2013

  Actual Average Record
Temperature  
Mean Temperature 66 °F -  
Max Temperature 81 °F 66 °F 87 °F (2000)
Min Temperature 50 °F 44 °F 33 °F (1998)
Growing Degree Days 16 (Base 50)    
Moisture  
Dew Point 53 °F    
Average Humidity 73    
Maximum Humidity 100    
Minimum Humidity 41    
Precipitation  
Precipitation 0.00 in - - ()
Sea Level Pressure  
Sea Level Pressure 30.24 in    
Wind  
Wind Speed 4 mph (SE)    
Max Wind Speed 9 mph    
Max Gust Speed 16 mph    
Visibility 8 miles    
Events      
Averages and records for this station are not official NWS values.
T = Trace of Precipitation, MM = Missing Value Source: NWS Daily Summary

Daily Weather History Graph

Daily Weather History Graph

Search for Another Location

Airport or City:

Trip Planner

Search our weather history database for the weather conditions in past years. The results will help you decide how hot, cold, wet, or windy it might be!

Date:

Astronomy

Jan. 23, 2013 Rise Set
Actual Time 7:28 AM CST 6:09 PM CST
Civil Twilight 7:03 AM CST 6:34 PM CST
Nautical Twilight 6:34 AM CST 7:03 PM CST
Astronomical Twilight 6:06 AM CST 7:31 PM CST
Moon 3:24 PM CST (1/23) 4:37 AM CST (1/23)
Length of Visible Light 11h 31m
Length of Day
10h 40m
Waxing Gibbous, 89% of the Moon is Illuminated
Jan 23
Waxing Gibbous
Jan 26
Full
Feb 3
Last Quarter
Feb 10
New
Feb 17
First Quarter

Hourly Weather History & Observations

Time (CST) Temp. Heat Index Dew Point Humidity Pressure Visibility Wind Dir Wind Speed Gust Speed Precip Events Conditions
12:53 AM 55.0 °F - 48.9 °F 80% 30.25 in 10.0 mi ESE 4.6 mph - N/A   Partly Cloudy
1:53 AM 54.0 °F - 48.9 °F 83% 30.24 in 10.0 mi ESE 4.6 mph - N/A   Partly Cloudy
2:53 AM 53.1 °F - 48.9 °F 86% 30.24 in 10.0 mi SE 4.6 mph - N/A   Clear
3:53 AM 53.1 °F - 50.0 °F 89% 30.24 in 10.0 mi ESE 4.6 mph - N/A   Clear
4:53 AM 53.1 °F - 51.1 °F 93% 30.24 in 10.0 mi ENE 4.6 mph - N/A   Clear
5:53 AM 52.0 °F - 50.0 °F 93% 30.24 in 7.0 mi ENE 3.5 mph - N/A   Clear
6:53 AM 51.1 °F - 50.0 °F 96% 30.25 in 4.0 mi East 3.5 mph - N/A   Clear
7:22 AM 51.8 °F - 50.0 °F 94% 30.27 in 2.5 mi Calm Calm - N/A   Clear
7:38 AM 51.8 °F - 48.2 °F 88% 30.27 in 1.5 mi Calm Calm - N/A   Clear
7:53 AM 50.0 °F - 50.0 °F 100% 30.27 in 1.5 mi Calm Calm - N/A   Clear
8:16 AM 53.6 °F - 51.8 °F 94% 30.29 in 2.0 mi Calm Calm - N/A   Clear
8:29 AM 55.4 °F - 53.6 °F 94% 30.29 in 4.0 mi Calm Calm - N/A   Clear
8:53 AM 59.0 °F - 54.0 °F 83% 30.30 in 9.0 mi Calm Calm - N/A   Clear
9:53 AM 64.0 °F - 57.0 °F 78% 30.31 in 10.0 mi Variable 4.6 mph - N/A   Clear
10:53 AM 70.0 °F - 57.9 °F 65% 30.32 in 10.0 mi SSE 6.9 mph - N/A   Clear
11:53 AM 75.9 °F - 55.9 °F 50% 30.30 in 10.0 mi SW 6.9 mph - N/A   Clear
12:53 PM 78.1 °F - 54.0 °F 43% 30.26 in 10.0 mi South 8.1 mph - N/A   Partly Cloudy
1:53 PM 79.0 °F - 55.0 °F 44% 30.21 in 10.0 mi South 6.9 mph - N/A   Partly Cloudy
2:53 PM 81.0 °F 80.7 °F 55.0 °F 41% 30.19 in 10.0 mi SSW 9.2 mph 16.1 mph N/A   Partly Cloudy
3:53 PM 81.0 °F 80.7 °F 55.0 °F 41% 30.18 in 10.0 mi SSW 5.8 mph - N/A   Partly Cloudy
4:53 PM 79.0 °F - 55.0 °F 44% 30.20 in 10.0 mi SSW 8.1 mph - N/A   Scattered Clouds
5:53 PM 75.9 °F - 55.9 °F 50% 30.18 in 10.0 mi SSE 5.8 mph - N/A   Clear
6:53 PM 70.0 °F - 55.0 °F 59% 30.20 in 10.0 mi ESE 4.6 mph - N/A   Clear
7:53 PM 69.1 °F - 55.9 °F 63% 30.21 in 10.0 mi SSE 4.6 mph - N/A   Clear
8:53 PM 66.9 °F - 55.9 °F 68% 30.20 in 10.0 mi South 4.6 mph - N/A   Clear
9:53 PM 64.0 °F - 55.0 °F 73% 30.22 in 10.0 mi Calm Calm - N/A   Clear
10:53 PM 63.0 °F - 55.9 °F 78% 30.22 in 10.0 mi SE 6.9 mph - N/A   Clear
11:53 PM 62.1 °F - 57.9 °F 86% 30.22 in 10.0 mi SE 5.8 mph - N/A   Clear